Flag for Canada Weather past 2 weeks in Waterloo, Ontario, Canada

Now
73 °F

Sunny.


Feels Like: 77 °F
Forecast: 46 / 79 °F
Wind: 10 mph from West

Location: Waterloo Well

Current Time: May 24, 2015 at 10:19:24 AM

Latest Report: May 24, 2015 at 10:00 AM


Visibility: 9 mi

Pressure: 30.25 "Hg

Humidity: 31%

Dew point: 41 °F

Location of WaterlooLocation

Historic Weather in Waterloo — Graph

°F

Waterloo temperature yesterday

Maximum temperature yesterday: 72 °F (at 4:00 PM)
Minimum temperature yesterday: 27 °F (at 6:00 AM)
Average temperature yesterday: 52 °F

Past Weeks' High & Low Weather Summary

 TemperatureHumidityPressure
High84 °F (May 9, 1:00 PM)100% (May 10, 5:46 AM)30.50 "Hg (May 10, 5:46 AM)
Low27 °F (May 23, 6:00 AM)20% (May 23, 3:00 PM)29.75 "Hg (May 12, 2:01 AM)
Average58 °F65%30.09 "Hg
* Reported May 9 9:00 AM — May 24 9:00 AM, Waterloo, Weather by CustomWeather, © 2015

Note: Actual official high and low records may vary slightly from our data, if they occured in-between our weather recording intervals... More about our weather records

Advertising

Waterloo weather history for previous 24 hours

 ConditionsComfort  
Time TempWeatherWind HumidityBarometerVisibility
9:00 AM
Sun, May 24
70 °FSunny.10 mph33%30.26 "Hg9 mi
8:00 AM63 °FSunny.5 mph39%30.28 "Hg9 mi
7:00 AM54 °FSunny.2 mph51%30.29 "Hg9 mi
6:00 AM52 °FClear.No wind44%30.27 "Hg9 mi
5:00 AM52 °FClear.3 mph44%30.24 "Hg9 mi
4:00 AM50 °FClear.2 mph43%30.25 "Hg9 mi
3:00 AM54 °FClear.5 mph35%30.25 "Hg9 mi
2:00 AM54 °FClear.7 mph33%30.27 "Hg9 mi
1:00 AM54 °FClear.9 mph28%30.27 "Hg9 mi
12:00 AM55 °FClear.10 mph31%30.27 "Hg9 mi
11:00 PM
Sat, May 23
54 °FClear.6 mph33%30.28 "Hg9 mi
10:00 PM57 °FClear.8 mph31%30.28 "Hg9 mi
9:00 PM61 °FSunny.9 mph29%30.27 "Hg9 mi
8:00 PM64 °FSunny.16 mph28%30.28 "Hg9 mi
7:00 PM68 °FSunny.15 mph24%30.28 "Hg9 mi
6:00 PM72 °FSunny.17 mph22%30.29 "Hg9 mi
5:00 PM72 °FSunny.17 mph20%30.31 "Hg9 mi
4:00 PM72 °FSunny.16 mph20%30.33 "Hg9 mi
3:00 PM70 °FSunny.18 mph20%30.34 "Hg9 mi
2:00 PM66 °FSunny.13 mph22%30.37 "Hg9 mi
1:00 PM64 °FSunny.15 mph24%30.38 "Hg9 mi
12:00 PM61 °FSunny.9 mph23%30.40 "Hg9 mi
11:00 AM59 °FSunny.14 mph25%30.41 "Hg9 mi
10:00 AM55 °FSunny.10 mph28%30.42 "Hg9 mi
Weather by CustomWeather, © 2015

See weather overviewHow to use our weather pages